Year,Month,Day,Hour,Minute,Value (Times are PST for temperature in C)
2009,07,26,00,00,22.80
2009,07,26,00,06,22.70
2009,07,26,00,07,22.70
2009,07,26,00,08,22.70
2009,07,26,00,09,22.70
2009,07,26,00,10,22.70
2009,07,26,00,11,22.70
2009,07,26,00,12,22.70
2009,07,26,00,13,22.80
2009,07,26,00,14,22.80
2009,07,26,00,15,22.80
2009,07,26,00,16,22.80
2009,07,26,00,17,22.80
2009,07,26,00,18,22.80
2009,07,26,00,19,22.70
2009,07,26,00,20,22.70
2009,07,26,00,21,22.70
2009,07,26,00,22,22.70
2009,07,26,00,23,22.70
2009,07,26,00,24,22.70
2009,07,26,00,25,22.70
2009,07,26,00,26,22.60
2009,07,26,00,27,22.60
2009,07,26,00,28,22.60
2009,07,26,00,29,22.60
2009,07,26,00,30,22.50
2009,07,26,00,31,22.50
2009,07,26,00,32,22.50
2009,07,26,00,33,22.40
2009,07,26,00,34,22.40
2009,07,26,00,35,22.30
2009,07,26,00,36,22.30
2009,07,26,00,37,22.20
2009,07,26,00,38,22.20
2009,07,26,00,39,22.10
2009,07,26,00,40,22.10
2009,07,26,00,41,22.00
2009,07,26,00,42,22.00
2009,07,26,00,43,22.00
2009,07,26,00,44,21.90
2009,07,26,00,45,21.90
2009,07,26,00,46,21.80
2009,07,26,00,47,21.80
2009,07,26,00,48,21.70
2009,07,26,00,49,21.60
2009,07,26,00,50,21.60
2009,07,26,00,51,21.40
2009,07,26,00,52,21.30
2009,07,26,00,53,21.30
2009,07,26,00,54,21.20
2009,07,26,00,55,21.10
2009,07,26,00,56,21.00
2009,07,26,00,57,21.00
2009,07,26,00,58,20.90
2009,07,26,00,59,20.90
2009,07,26,01,00,20.80
2009,07,26,01,01,20.80
2009,07,26,01,02,20.80
2009,07,26,01,03,20.70
2009,07,26,01,04,20.70
2009,07,26,01,05,20.60
2009,07,26,01,06,20.60
2009,07,26,01,07,20.60
2009,07,26,01,08,20.50
2009,07,26,01,09,20.50
2009,07,26,01,10,20.50
2009,07,26,01,11,20.50
2009,07,26,01,12,20.40
2009,07,26,01,13,20.40
2009,07,26,01,14,20.40
2009,07,26,01,15,20.40
2009,07,26,01,16,20.40
2009,07,26,01,17,20.40
2009,07,26,01,18,20.30
2009,07,26,01,19,20.30
2009,07,26,01,20,20.30
2009,07,26,01,21,20.30
2009,07,26,01,22,20.30
2009,07,26,01,23,20.30
2009,07,26,01,24,20.20
2009,07,26,01,25,20.20
2009,07,26,01,26,20.20
2009,07,26,01,27,20.20
2009,07,26,01,28,20.20
2009,07,26,01,29,20.20
2009,07,26,01,30,20.20
2009,07,26,01,31,20.20
2009,07,26,01,32,20.20
2009,07,26,01,33,20.20
2009,07,26,01,34,20.20
2009,07,26,01,35,20.20
2009,07,26,01,36,20.20
2009,07,26,01,37,20.20
2009,07,26,01,38,20.20
2009,07,26,01,39,20.20
2009,07,26,01,40,20.20
2009,07,26,01,41,20.20
2009,07,26,01,42,20.10
2009,07,26,01,43,20.10
2009,07,26,01,44,20.10
2009,07,26,01,45,20.10
2009,07,26,01,46,20.10
2009,07,26,01,47,20.10
2009,07,26,01,48,20.10
2009,07,26,01,49,20.10
2009,07,26,01,50,20.10
2009,07,26,01,51,20.10
2009,07,26,01,52,20.10
2009,07,26,01,53,20.10
2009,07,26,01,54,20.10
2009,07,26,01,55,20.10
2009,07,26,01,56,20.10
2009,07,26,01,57,20.10
2009,07,26,01,58,20.10
2009,07,26,01,59,20.10
2009,07,26,02,00,20.10
2009,07,26,02,01,20.10
2009,07,26,02,02,20.10
2009,07,26,02,03,20.10
2009,07,26,02,04,20.10
2009,07,26,02,05,20.10
2009,07,26,02,06,20.10
2009,07,26,02,07,20.10
2009,07,26,02,08,20.00
2009,07,26,02,09,19.90
2009,07,26,02,10,19.90
2009,07,26,02,11,19.90
2009,07,26,02,12,19.90
2009,07,26,02,13,19.90
2009,07,26,02,14,19.90
2009,07,26,02,15,19.90
2009,07,26,02,16,19.90
2009,07,26,02,17,19.90
2009,07,26,02,18,19.90
2009,07,26,02,19,19.90
2009,07,26,02,20,19.90
2009,07,26,02,21,19.90
2009,07,26,02,22,19.90
2009,07,26,02,23,19.90
2009,07,26,02,24,19.90
2009,07,26,02,25,19.90
2009,07,26,02,26,19.90
2009,07,26,02,27,19.90
2009,07,26,02,28,19.90
2009,07,26,02,29,19.90
2009,07,26,02,30,19.90
2009,07,26,02,31,19.90
2009,07,26,02,32,19.90
2009,07,26,02,33,19.90
2009,07,26,02,34,19.90
2009,07,26,02,35,19.90
2009,07,26,02,36,19.90
2009,07,26,02,37,19.90
2009,07,26,02,38,19.80
2009,07,26,02,39,19.80
2009,07,26,02,40,19.80
2009,07,26,02,41,19.80
2009,07,26,02,42,19.80
2009,07,26,02,43,19.80
2009,07,26,02,44,19.80
2009,07,26,02,45,19.80
2009,07,26,02,46,19.80
2009,07,26,02,47,19.80
2009,07,26,02,48,19.80
2009,07,26,02,49,19.80
2009,07,26,02,50,19.80
2009,07,26,02,51,19.80
2009,07,26,02,52,19.80
2009,07,26,02,53,19.80
2009,07,26,02,54,19.80
2009,07,26,02,55,19.80
2009,07,26,02,56,19.80
2009,07,26,02,57,19.80
2009,07,26,02,58,19.80
2009,07,26,02,59,19.80
2009,07,26,03,00,19.80
2009,07,26,03,01,19.80
2009,07,26,03,02,19.80
2009,07,26,03,03,19.80
2009,07,26,03,04,19.70
2009,07,26,03,05,19.70
2009,07,26,03,06,19.70
2009,07,26,03,07,19.70
2009,07,26,03,08,19.70
2009,07,26,03,09,19.70
2009,07,26,03,10,19.70
2009,07,26,03,11,19.60
2009,07,26,03,12,19.60
2009,07,26,03,13,19.60
2009,07,26,03,14,19.60
2009,07,26,03,15,19.60
2009,07,26,03,16,19.60
2009,07,26,03,17,19.60
2009,07,26,03,18,19.60
2009,07,26,03,19,19.60
2009,07,26,03,20,19.60
2009,07,26,03,21,19.60
2009,07,26,03,22,19.60
2009,07,26,03,23,19.60
2009,07,26,03,24,19.60
2009,07,26,03,25,19.60
2009,07,26,03,26,19.60
2009,07,26,03,27,19.70
2009,07,26,03,28,19.70
2009,07,26,03,29,19.70
2009,07,26,03,30,19.70
2009,07,26,03,31,19.80
2009,07,26,03,32,19.80
2009,07,26,03,33,19.90
2009,07,26,03,34,19.90
2009,07,26,03,35,19.90
2009,07,26,03,36,20.00
2009,07,26,03,37,20.10
2009,07,26,03,38,20.20
2009,07,26,03,39,20.20
2009,07,26,03,40,20.20
2009,07,26,03,41,20.20
2009,07,26,03,42,20.20
2009,07,26,03,43,20.20
2009,07,26,03,44,20.20
2009,07,26,03,45,20.30
2009,07,26,03,46,20.30
2009,07,26,03,47,20.30
2009,07,26,03,48,20.30
2009,07,26,03,49,20.30
2009,07,26,03,50,20.30
2009,07,26,03,51,20.30
2009,07,26,03,52,20.30
2009,07,26,03,53,20.30
2009,07,26,03,54,20.30
2009,07,26,03,55,20.30
2009,07,26,03,56,20.30
2009,07,26,03,57,20.30
2009,07,26,03,58,20.30
2009,07,26,03,59,20.30
2009,07,26,04,00,20.30
2009,07,26,04,01,20.30
2009,07,26,04,02,20.30
2009,07,26,04,03,20.30
2009,07,26,04,04,20.30
2009,07,26,04,05,20.30
2009,07,26,04,06,20.30
2009,07,26,04,07,20.30
2009,07,26,04,08,20.30
2009,07,26,04,09,20.30
2009,07,26,04,10,20.30
2009,07,26,04,11,20.30
2009,07,26,04,12,20.30
2009,07,26,04,13,20.30
2009,07,26,04,14,20.30
2009,07,26,04,15,20.30
2009,07,26,04,16,20.30
2009,07,26,04,17,20.30
2009,07,26,04,18,20.30
2009,07,26,04,19,20.30
2009,07,26,04,20,20.30
2009,07,26,04,21,20.30
2009,07,26,04,22,20.20
2009,07,26,04,23,20.20
2009,07,26,04,24,20.20
2009,07,26,04,25,20.20
2009,07,26,04,26,20.20
2009,07,26,04,27,20.20
2009,07,26,04,28,20.20
2009,07,26,04,29,20.30
2009,07,26,04,30,20.30
2009,07,26,04,31,20.30
2009,07,26,04,32,20.30
2009,07,26,04,33,20.30
2009,07,26,04,34,20.30
2009,07,26,04,35,20.30
2009,07,26,04,36,20.30
2009,07,26,04,37,20.30
2009,07,26,04,38,20.30
2009,07,26,04,39,20.30
2009,07,26,04,40,20.30
2009,07,26,04,41,20.30
2009,07,26,04,42,20.30
2009,07,26,04,43,20.30
2009,07,26,04,44,20.30
2009,07,26,04,45,20.30
2009,07,26,04,46,20.40
2009,07,26,04,47,20.40
2009,07,26,04,48,20.40
2009,07,26,04,49,20.40
2009,07,26,04,50,20.40
2009,07,26,04,51,20.40
2009,07,26,04,52,20.40
2009,07,26,04,53,20.40
2009,07,26,04,54,20.40
2009,07,26,04,55,20.40
2009,07,26,04,56,20.40
2009,07,26,04,57,20.40
2009,07,26,04,58,20.30
2009,07,26,04,59,20.30
2009,07,26,05,00,20.30
2009,07,26,05,01,20.30
2009,07,26,05,02,20.30
2009,07,26,05,03,20.20
2009,07,26,05,04,20.20
2009,07,26,05,05,20.20
2009,07,26,05,06,20.20
2009,07,26,05,07,20.20
2009,07,26,05,08,20.20
2009,07,26,05,09,20.20
2009,07,26,05,10,20.20
2009,07,26,05,11,20.20
2009,07,26,05,12,20.20
2009,07,26,05,13,20.10
2009,07,26,05,14,20.10
2009,07,26,05,15,20.10
2009,07,26,05,16,20.10
2009,07,26,05,17,20.10
2009,07,26,05,18,20.10
2009,07,26,05,19,20.10
2009,07,26,05,20,20.10
2009,07,26,05,21,20.10
2009,07,26,05,22,20.10
2009,07,26,05,23,20.10
2009,07,26,05,24,20.10
2009,07,26,05,25,20.10
2009,07,26,05,26,20.10
2009,07,26,05,27,20.10
2009,07,26,05,28,20.10
2009,07,26,05,29,20.10
2009,07,26,05,30,20.10
2009,07,26,05,31,20.10
2009,07,26,05,32,20.10
2009,07,26,05,33,20.10
2009,07,26,05,34,20.10
2009,07,26,05,35,20.10
2009,07,26,05,36,20.10
2009,07,26,05,37,20.10
2009,07,26,05,38,20.10
2009,07,26,05,39,20.10
2009,07,26,05,40,20.10
2009,07,26,05,41,20.10
2009,07,26,05,42,20.10
2009,07,26,05,43,20.10
2009,07,26,05,44,20.10
2009,07,26,05,45,20.10
2009,07,26,05,46,20.10
2009,07,26,05,47,20.00
2009,07,26,05,48,19.90
2009,07,26,05,49,19.90
2009,07,26,05,50,19.90
2009,07,26,05,51,19.90
2009,07,26,05,52,19.90
2009,07,26,05,53,19.90
2009,07,26,05,54,19.90
2009,07,26,05,55,19.90
2009,07,26,05,56,19.90
2009,07,26,05,57,19.90
2009,07,26,05,58,19.90
2009,07,26,05,59,19.90
2009,07,26,06,00,19.90
2009,07,26,06,01,19.90
2009,07,26,06,02,19.90
2009,07,26,06,03,19.90
2009,07,26,06,04,19.90
2009,07,26,06,05,19.90
2009,07,26,06,06,19.90
2009,07,26,06,07,19.90
2009,07,26,06,08,19.90
2009,07,26,06,09,19.90
2009,07,26,06,10,19.90
2009,07,26,06,11,19.90
2009,07,26,06,12,19.90
2009,07,26,06,13,19.90
2009,07,26,06,14,19.90
2009,07,26,06,15,19.80
2009,07,26,06,16,19.80
2009,07,26,06,17,19.80
2009,07,26,06,18,19.80
2009,07,26,06,19,19.80
2009,07,26,06,20,19.80
2009,07,26,06,21,19.80
2009,07,26,06,22,19.80
2009,07,26,06,23,19.80
2009,07,26,06,24,19.70
2009,07,26,06,25,19.70
2009,07,26,06,26,19.70
2009,07,26,06,27,19.70
2009,07,26,06,28,19.70
2009,07,26,06,29,19.70
2009,07,26,06,30,19.70
2009,07,26,06,31,19.70
2009,07,26,06,32,19.70
2009,07,26,06,33,19.70
2009,07,26,06,34,19.70
2009,07,26,06,35,19.70
2009,07,26,06,36,19.70
2009,07,26,06,37,19.70
2009,07,26,06,38,19.70
2009,07,26,06,39,19.70
2009,07,26,06,40,19.70
2009,07,26,06,41,19.70
2009,07,26,06,42,19.70
2009,07,26,06,43,19.70
2009,07,26,06,44,19.70
2009,07,26,06,45,19.80
2009,07,26,06,46,19.80
2009,07,26,06,47,19.80
2009,07,26,06,48,19.80
2009,07,26,06,49,19.80
2009,07,26,06,50,19.80
2009,07,26,06,51,19.80
2009,07,26,06,52,19.80
2009,07,26,06,53,19.80
2009,07,26,06,54,19.80
2009,07,26,06,55,19.80
2009,07,26,06,56,19.80
2009,07,26,06,57,19.80
2009,07,26,06,58,19.80
2009,07,26,06,59,19.90
2009,07,26,07,00,19.90
2009,07,26,07,01,19.90
2009,07,26,07,02,19.90
2009,07,26,07,03,19.90
2009,07,26,07,04,19.90
2009,07,26,07,05,19.90
2009,07,26,07,06,19.90
2009,07,26,07,07,19.90
2009,07,26,07,08,19.90
2009,07,26,07,09,19.90
2009,07,26,07,10,19.90
2009,07,26,07,11,19.90
2009,07,26,07,12,19.90
2009,07,26,07,13,19.90
2009,07,26,07,14,19.90
2009,07,26,07,15,19.90
2009,07,26,07,16,20.10
2009,07,26,07,17,20.10
2009,07,26,07,18,20.10
2009,07,26,07,19,20.10
2009,07,26,07,20,20.10
2009,07,26,07,21,20.20
2009,07,26,07,22,20.20
2009,07,26,07,23,20.20
2009,07,26,07,24,20.20
2009,07,26,07,25,20.20
2009,07,26,07,26,20.20
2009,07,26,07,27,20.30
2009,07,26,07,28,20.30
2009,07,26,07,29,20.30
2009,07,26,07,30,20.30
2009,07,26,07,31,20.30
2009,07,26,07,32,20.30
2009,07,26,07,33,20.30
2009,07,26,07,34,20.30
2009,07,26,07,35,20.30
2009,07,26,07,36,20.30
2009,07,26,07,37,20.30
2009,07,26,07,38,20.30
2009,07,26,07,39,20.30
2009,07,26,07,40,20.30
2009,07,26,07,41,20.30
2009,07,26,07,42,20.30
2009,07,26,07,43,20.30
2009,07,26,07,44,20.30
2009,07,26,07,45,20.30
2009,07,26,07,46,20.30
2009,07,26,07,47,20.30
2009,07,26,07,48,20.20
2009,07,26,07,49,20.20
2009,07,26,07,50,20.20
2009,07,26,07,51,20.20
2009,07,26,07,52,20.20
2009,07,26,07,53,20.20
2009,07,26,07,54,20.20
2009,07,26,07,55,20.20
2009,07,26,07,56,20.20
2009,07,26,07,57,20.10
2009,07,26,07,58,20.10
2009,07,26,07,59,20.10
2009,07,26,08,00,20.10
2009,07,26,08,01,20.10
2009,07,26,08,02,20.10
2009,07,26,08,03,20.10
2009,07,26,08,04,20.10
2009,07,26,08,05,20.10
2009,07,26,08,06,20.10
2009,07,26,08,07,20.10
2009,07,26,08,08,20.10
2009,07,26,08,09,20.10
2009,07,26,08,10,20.10
2009,07,26,08,11,20.10
2009,07,26,08,12,20.10
2009,07,26,08,13,20.10
2009,07,26,08,14,20.20
2009,07,26,08,15,20.20
2009,07,26,08,16,20.20
2009,07,26,08,17,20.20
2009,07,26,08,18,20.20
2009,07,26,08,19,20.20
2009,07,26,08,20,20.20
2009,07,26,08,21,20.20
2009,07,26,08,22,20.20
2009,07,26,08,23,20.10
2009,07,26,08,24,20.10
2009,07,26,08,25,20.10
2009,07,26,08,26,20.10
2009,07,26,08,27,20.10
2009,07,26,08,28,20.10
2009,07,26,08,29,20.10
2009,07,26,08,30,20.20
2009,07,26,08,31,20.10
2009,07,26,08,32,20.10
2009,07,26,08,33,20.10
2009,07,26,08,34,19.90
2009,07,26,08,35,19.90
2009,07,26,08,36,19.90
2009,07,26,08,37,19.90
2009,07,26,08,38,19.90
2009,07,26,08,39,20.00
2009,07,26,08,40,20.10
2009,07,26,08,41,20.10
2009,07,26,08,42,20.10
2009,07,26,08,43,20.20
2009,07,26,08,44,20.20
2009,07,26,08,45,20.20
2009,07,26,08,46,20.20
2009,07,26,08,47,20.30
2009,07,26,08,48,20.30
2009,07,26,08,49,20.40
2009,07,26,08,50,20.40
2009,07,26,08,51,20.50
2009,07,26,08,52,20.50
2009,07,26,08,53,20.50
2009,07,26,08,54,20.50
2009,07,26,08,55,20.60
2009,07,26,08,56,20.60
2009,07,26,08,57,20.60
2009,07,26,08,58,20.60
2009,07,26,08,59,20.60
2009,07,26,09,00,20.70
2009,07,26,09,01,20.70
2009,07,26,09,02,20.70
2009,07,26,09,03,20.70
2009,07,26,09,04,20.60
2009,07,26,09,05,20.60
2009,07,26,09,06,20.60
2009,07,26,09,07,20.50
2009,07,26,09,08,20.50
2009,07,26,09,09,20.50
2009,07,26,09,10,20.40
2009,07,26,09,11,20.40
2009,07,26,09,12,20.40
2009,07,26,09,13,20.30
2009,07,26,09,14,20.30
2009,07,26,09,15,20.20
2009,07,26,09,16,20.20
2009,07,26,09,17,20.20
2009,07,26,09,18,20.20
2009,07,26,09,19,20.20
2009,07,26,09,20,20.20
2009,07,26,09,21,20.20
2009,07,26,09,22,20.20
2009,07,26,09,23,20.30
2009,07,26,09,24,20.30
2009,07,26,09,25,20.40
2009,07,26,09,26,20.40
2009,07,26,09,27,20.40
2009,07,26,09,28,20.50
2009,07,26,09,29,20.40
2009,07,26,09,30,20.50
2009,07,26,09,31,20.50
2009,07,26,09,32,20.50
2009,07,26,09,33,20.50
2009,07,26,09,34,20.50
2009,07,26,09,35,20.50
2009,07,26,09,36,20.50
2009,07,26,09,37,20.50
2009,07,26,09,38,20.50
2009,07,26,09,39,20.50
2009,07,26,09,40,20.60
2009,07,26,09,41,20.60
2009,07,26,09,42,20.60
2009,07,26,09,43,20.60
2009,07,26,09,44,20.70
2009,07,26,09,45,20.70
2009,07,26,09,46,20.70
2009,07,26,09,47,20.70
2009,07,26,09,48,20.70
2009,07,26,09,49,20.80
2009,07,26,09,50,20.80
2009,07,26,09,51,20.90
2009,07,26,09,52,20.90
2009,07,26,09,53,21.00
2009,07,26,09,54,21.00
2009,07,26,09,55,21.00
2009,07,26,09,56,21.10
2009,07,26,09,57,21.10
2009,07,26,09,58,21.10
2009,07,26,09,59,21.10
2009,07,26,10,00,21.10
2009,07,26,10,01,21.10
2009,07,26,10,02,21.10
2009,07,26,10,03,21.10
2009,07,26,10,04,21.20
2009,07,26,10,05,21.20
2009,07,26,10,06,21.30
2009,07,26,10,07,21.30
2009,07,26,10,08,21.30
2009,07,26,10,09,21.30
2009,07,26,10,10,21.30
2009,07,26,10,11,21.40
2009,07,26,10,12,21.30
2009,07,26,10,13,21.30
2009,07,26,10,14,21.30
2009,07,26,10,15,21.30
2009,07,26,10,16,21.30
2009,07,26,10,17,21.30
2009,07,26,10,18,21.30
2009,07,26,10,19,21.30
2009,07,26,10,20,21.30
2009,07,26,10,21,21.30
2009,07,26,10,22,21.30
2009,07,26,10,23,21.30
2009,07,26,10,24,21.30
2009,07,26,10,25,21.30
2009,07,26,10,26,21.30
2009,07,26,10,27,21.40
2009,07,26,10,28,21.40
2009,07,26,10,29,21.40
2009,07,26,10,30,21.60
2009,07,26,10,31,21.60
2009,07,26,10,32,21.60
2009,07,26,10,33,21.60
2009,07,26,10,34,21.60
2009,07,26,10,35,21.70
2009,07,26,10,36,21.70
2009,07,26,10,37,21.80
2009,07,26,10,38,21.80
2009,07,26,10,39,21.80
2009,07,26,10,40,21.80
2009,07,26,10,41,21.80
2009,07,26,10,42,21.80
2009,07,26,10,43,21.80
2009,07,26,10,44,21.80
2009,07,26,10,45,21.90
2009,07,26,10,46,21.90
2009,07,26,10,47,22.00
2009,07,26,10,48,22.10
2009,07,26,10,49,22.20
2009,07,26,10,50,22.30
2009,07,26,10,51,22.40
2009,07,26,10,52,22.50
2009,07,26,10,53,22.50
2009,07,26,10,54,22.50
2009,07,26,10,55,22.50
2009,07,26,10,56,22.50
2009,07,26,10,57,22.50
2009,07,26,10,58,22.40
2009,07,26,10,59,22.30
2009,07,26,11,00,22.20
2009,07,26,11,01,22.10
2009,07,26,11,02,22.10
2009,07,26,11,03,22.10
2009,07,26,11,04,22.10
2009,07,26,11,05,22.20
2009,07,26,11,06,22.20
2009,07,26,11,07,22.30
2009,07,26,11,08,22.30
2009,07,26,11,09,22.40
2009,07,26,11,10,22.50
2009,07,26,11,11,22.60
2009,07,26,11,12,22.60
2009,07,26,11,13,22.60
2009,07,26,11,14,22.60
2009,07,26,11,15,22.60
2009,07,26,11,16,22.60
2009,07,26,11,17,22.60
2009,07,26,11,18,22.60
2009,07,26,11,19,22.50
2009,07,26,11,20,22.50
2009,07,26,11,21,22.50
2009,07,26,11,22,22.60
2009,07,26,11,23,22.70
2009,07,26,11,24,22.80
2009,07,26,11,25,22.90
2009,07,26,11,26,22.90
2009,07,26,11,27,22.90
2009,07,26,11,28,22.90
2009,07,26,11,29,22.90
2009,07,26,11,30,23.00
2009,07,26,11,31,23.00
2009,07,26,11,32,23.10
2009,07,26,11,33,23.10
2009,07,26,11,34,23.10
2009,07,26,11,35,23.10
2009,07,26,11,36,23.10
2009,07,26,11,37,23.20
2009,07,26,11,38,23.20
2009,07,26,11,39,23.20
2009,07,26,11,40,23.20
2009,07,26,11,41,23.20
2009,07,26,11,42,23.10
2009,07,26,11,43,23.10
2009,07,26,11,44,22.90
2009,07,26,11,45,22.90
2009,07,26,11,46,23.00
2009,07,26,11,47,22.90
2009,07,26,11,48,22.90
2009,07,26,11,49,22.90
2009,07,26,11,50,22.80
2009,07,26,11,51,22.70
2009,07,26,11,52,22.70
2009,07,26,11,53,22.70
2009,07,26,11,54,22.70
2009,07,26,11,55,22.70
2009,07,26,11,56,22.80
2009,07,26,11,57,22.90
2009,07,26,11,58,22.90
2009,07,26,11,59,23.10
2009,07,26,12,00,23.20
2009,07,26,12,01,23.30
2009,07,26,12,02,23.50
2009,07,26,12,03,23.60
2009,07,26,12,04,23.60
2009,07,26,12,05,23.60
2009,07,26,12,06,23.50
2009,07,26,12,07,23.40
2009,07,26,12,08,23.30
2009,07,26,12,09,23.30
2009,07,26,12,10,23.30
2009,07,26,12,11,23.40
2009,07,26,12,12,23.40
2009,07,26,12,13,23.40
2009,07,26,12,14,23.40
2009,07,26,12,15,23.30
2009,07,26,12,16,23.40
2009,07,26,12,17,23.50
2009,07,26,12,18,23.70
2009,07,26,12,19,23.80
2009,07,26,12,20,23.80
2009,07,26,12,21,23.90
2009,07,26,12,22,24.00
2009,07,26,12,23,24.10
2009,07,26,12,24,24.20
2009,07,26,12,25,24.30
2009,07,26,12,26,24.30
2009,07,26,12,27,24.30
2009,07,26,12,28,24.40
2009,07,26,12,29,24.50
2009,07,26,12,30,24.50
2009,07,26,12,31,24.50
2009,07,26,12,32,24.50
2009,07,26,12,33,24.70
2009,07,26,12,34,24.70
2009,07,26,12,35,24.70
2009,07,26,12,36,24.60
2009,07,26,12,37,24.60
2009,07,26,12,38,24.60
2009,07,26,12,39,24.60
2009,07,26,12,40,24.60
2009,07,26,12,41,24.70
2009,07,26,12,42,24.70
2009,07,26,12,43,24.70
2009,07,26,12,44,24.80
2009,07,26,12,45,24.80
2009,07,26,12,46,24.90
2009,07,26,12,47,25.00
2009,07,26,12,48,25.00
2009,07,26,12,49,25.10
2009,07,26,12,50,25.10
2009,07,26,12,51,25.10
2009,07,26,12,52,25.00
2009,07,26,12,53,24.90
2009,07,26,12,54,24.80
2009,07,26,12,55,24.70
2009,07,26,12,56,24.50
2009,07,26,12,57,24.50
2009,07,26,12,58,24.60
2009,07,26,12,59,24.70
2009,07,26,13,00,24.70
2009,07,26,13,01,24.70
2009,07,26,13,02,24.70
2009,07,26,13,03,24.70
2009,07,26,13,04,24.80
2009,07,26,13,05,24.80
2009,07,26,13,06,24.90
2009,07,26,13,07,25.00
2009,07,26,13,08,25.20
2009,07,26,13,09,25.20
2009,07,26,13,10,25.30
2009,07,26,13,11,25.30
2009,07,26,13,12,25.40
2009,07,26,13,13,25.50
2009,07,26,13,14,25.60
2009,07,26,13,15,25.70
2009,07,26,13,16,25.80
2009,07,26,13,17,25.80
2009,07,26,13,18,25.80
2009,07,26,13,19,25.80
2009,07,26,13,20,25.90
2009,07,26,13,21,25.90
2009,07,26,13,22,26.00
2009,07,26,13,23,25.90
2009,07,26,13,24,25.90
2009,07,26,13,25,25.90
2009,07,26,13,26,25.90
2009,07,26,13,27,26.00
2009,07,26,13,28,26.00
2009,07,26,13,29,26.10
2009,07,26,13,30,26.10
2009,07,26,13,31,26.20
2009,07,26,13,32,26.20
2009,07,26,13,33,26.30
2009,07,26,13,34,26.40
2009,07,26,13,35,26.40
2009,07,26,13,36,26.40
2009,07,26,13,37,26.40
2009,07,26,13,38,26.40
2009,07,26,13,39,26.40
2009,07,26,13,40,26.40
2009,07,26,13,41,26.40
2009,07,26,13,42,26.40
2009,07,26,13,43,26.40
2009,07,26,13,44,26.40
2009,07,26,13,45,26.30
2009,07,26,13,46,26.20
2009,07,26,13,47,26.20
2009,07,26,13,48,26.10
2009,07,26,13,49,26.10
2009,07,26,13,50,26.10
2009,07,26,13,51,26.10
2009,07,26,13,52,26.20
2009,07,26,13,53,26.40
2009,07,26,13,54,26.50
2009,07,26,13,55,26.60
2009,07,26,13,56,26.60
2009,07,26,13,57,26.80
2009,07,26,13,58,26.90
2009,07,26,13,59,27.10
2009,07,26,14,00,27.20
2009,07,26,14,01,27.30
2009,07,26,14,02,27.40
2009,07,26,14,03,27.50
2009,07,26,14,04,27.60
2009,07,26,14,05,27.60
2009,07,26,14,06,27.70
2009,07,26,14,07,27.80
2009,07,26,14,08,27.80
2009,07,26,14,09,27.90
2009,07,26,14,10,28.00
2009,07,26,14,11,28.10
2009,07,26,14,12,28.10
2009,07,26,14,13,28.10
2009,07,26,14,14,28.20
2009,07,26,14,15,28.20
2009,07,26,14,16,28.00
2009,07,26,14,17,27.70
2009,07,26,14,18,27.60
2009,07,26,14,19,27.50
2009,07,26,14,20,27.30
2009,07,26,14,21,27.10
2009,07,26,14,22,26.70
2009,07,26,14,23,26.20
2009,07,26,14,24,25.90
2009,07,26,14,25,25.80
2009,07,26,14,26,25.60
2009,07,26,14,27,25.50
2009,07,26,14,28,25.40
2009,07,26,14,29,25.00
2009,07,26,14,30,24.90
2009,07,26,14,31,24.80
2009,07,26,14,32,24.70
2009,07,26,14,33,24.70
2009,07,26,14,34,24.80
2009,07,26,14,35,24.90
2009,07,26,14,36,25.00
2009,07,26,14,37,24.90
2009,07,26,14,38,24.80
2009,07,26,14,39,24.80
2009,07,26,14,40,24.80
2009,07,26,14,41,24.80
2009,07,26,14,42,24.90
2009,07,26,14,43,25.00
2009,07,26,14,44,25.00
2009,07,26,14,45,25.10
2009,07,26,14,46,25.10
2009,07,26,14,47,25.10
2009,07,26,14,48,25.20
2009,07,26,14,49,25.30
2009,07,26,14,50,25.50
2009,07,26,14,51,25.70
2009,07,26,14,52,25.90
2009,07,26,14,53,26.00
2009,07,26,14,54,26.00
2009,07,26,14,55,26.00
2009,07,26,14,56,25.90
2009,07,26,14,57,25.90
2009,07,26,14,58,25.90
2009,07,26,14,59,26.00
2009,07,26,15,00,26.10
2009,07,26,15,01,26.10
2009,07,26,15,02,26.10
2009,07,26,15,03,26.20
2009,07,26,15,04,26.20
2009,07,26,15,05,26.30
2009,07,26,15,06,26.40
2009,07,26,15,07,26.60
2009,07,26,15,08,26.60
2009,07,26,15,09,26.70
2009,07,26,15,10,26.80
2009,07,26,15,11,26.80
2009,07,26,15,12,26.80
2009,07,26,15,13,26.90
2009,07,26,15,14,27.00
2009,07,26,15,15,27.10
2009,07,26,15,16,27.00
2009,07,26,15,17,26.90
2009,07,26,15,18,26.90
2009,07,26,15,19,26.90
2009,07,26,15,20,26.80
2009,07,26,15,21,26.80
2009,07,26,15,22,26.80
2009,07,26,15,23,26.90
2009,07,26,15,24,27.00
2009,07,26,15,25,27.10
2009,07,26,15,26,27.00
2009,07,26,15,27,26.80
2009,07,26,15,28,26.60
2009,07,26,15,29,26.40
2009,07,26,15,30,26.40
2009,07,26,15,31,26.50
2009,07,26,15,32,26.60
2009,07,26,15,33,26.70
2009,07,26,15,34,26.90
2009,07,26,15,35,27.10
2009,07,26,15,36,27.30
2009,07,26,15,37,27.50
2009,07,26,15,38,27.70
2009,07,26,15,39,27.90
2009,07,26,15,40,28.10
2009,07,26,15,41,28.30
2009,07,26,15,42,28.50
2009,07,26,15,43,28.60
2009,07,26,15,44,28.70
2009,07,26,15,45,28.60
2009,07,26,15,46,28.50
2009,07,26,15,47,28.40
2009,07,26,15,48,28.10
2009,07,26,15,49,28.00
2009,07,26,15,50,27.80
2009,07,26,15,51,27.80
2009,07,26,15,52,27.70
2009,07,26,15,53,27.70
2009,07,26,15,54,27.70
2009,07,26,15,55,27.60
2009,07,26,15,56,27.60
2009,07,26,15,57,27.60
2009,07,26,15,58,27.60
2009,07,26,15,59,27.50
2009,07,26,16,00,27.40
2009,07,26,16,01,27.30
2009,07,26,16,02,27.30
2009,07,26,16,03,27.30
2009,07,26,16,04,27.30
2009,07,26,16,05,27.30
2009,07,26,16,06,27.30
2009,07,26,16,07,27.30
2009,07,26,16,08,27.20
2009,07,26,16,09,27.20
2009,07,26,16,10,27.10
2009,07,26,16,11,26.90
2009,07,26,16,12,26.80
2009,07,26,16,13,26.70
2009,07,26,16,14,26.70
2009,07,26,16,15,26.60
2009,07,26,16,16,26.60
2009,07,26,16,17,26.60
2009,07,26,16,18,26.60
2009,07,26,16,19,26.60
2009,07,26,16,20,26.50
2009,07,26,16,21,26.40
2009,07,26,16,22,26.40
2009,07,26,16,23,26.40
2009,07,26,16,24,26.30
2009,07,26,16,25,26.30
2009,07,26,16,26,26.30
2009,07,26,16,27,26.40
2009,07,26,16,28,26.50
2009,07,26,16,29,26.60
2009,07,26,16,30,26.60
2009,07,26,16,31,26.60
2009,07,26,16,32,26.60
2009,07,26,16,33,26.70
2009,07,26,16,34,26.70
2009,07,26,16,35,26.70
2009,07,26,16,36,26.70
2009,07,26,16,37,26.70
2009,07,26,16,38,26.70
2009,07,26,16,39,26.60
2009,07,26,16,40,26.70
2009,07,26,16,41,26.70
2009,07,26,16,42,26.80
2009,07,26,16,43,26.80
2009,07,26,16,44,26.70
2009,07,26,16,45,26.60
2009,07,26,16,46,26.70
2009,07,26,16,47,26.80
2009,07,26,16,48,26.80
2009,07,26,16,49,26.80
2009,07,26,16,50,26.80
2009,07,26,16,51,26.70
2009,07,26,16,52,26.70
2009,07,26,16,53,26.70
2009,07,26,16,54,26.70
2009,07,26,16,55,26.60
2009,07,26,16,56,26.60
2009,07,26,16,57,26.60
2009,07,26,16,58,26.60
2009,07,26,16,59,26.60
2009,07,26,17,00,26.60
2009,07,26,17,01,26.70
2009,07,26,17,02,26.70
2009,07,26,17,03,26.80
2009,07,26,17,04,26.90
2009,07,26,17,05,26.90
2009,07,26,17,06,27.00
2009,07,26,17,07,27.10
2009,07,26,17,08,27.10
2009,07,26,17,09,27.10
2009,07,26,17,10,27.10
2009,07,26,17,11,26.90
2009,07,26,17,12,26.90
2009,07,26,17,13,27.00
2009,07,26,17,14,27.10
2009,07,26,17,15,27.10
2009,07,26,17,16,27.10
2009,07,26,17,17,27.10
2009,07,26,17,18,27.10
2009,07,26,17,19,27.10
2009,07,26,17,20,27.10
2009,07,26,17,21,27.20
2009,07,26,17,22,27.30
2009,07,26,17,23,27.30
2009,07,26,17,24,27.30